User: anonymous   Login
Location: Kosice
(0.0000°N, 21.2500°E)
Time: 23:19:43
(UTC+02:00)
Language:

Iridium 4 Rocket - Orbit

View from above orbital plane
View from above orbital plane
View from above satellite
View from above satellite

Ground track
Ground track

The orbit data is extracted from the following two-line orbital elements,

1 24797U 97020F   21104.32614372  .00000114  00000-0  19472-4 0  9996
2 24797  86.9034 201.6230 0223860 338.7898  79.7117 14.44236599259546
Epoch (UTC): 14 April 2021 07:49:38
Eccentricity: 0.0223860
inclination: 86.9034°
perigee height: 585 km
apogee height: 904 km
right ascension of ascending node: 201.6230°
argument of perigee: 338.7898°
revolutions per day: 14.44236599
mean anomaly at epoch: 79.7117°
orbit number at epoch: 25954

The dashed part of the orbit path shows where the satellite is in the earth's shadow,  

DLR